Year,Month,Day,Hour,Minute,Value (Times are PST for temperature in C)
2014,07,14,00,00,23.80
2014,07,14,00,01,23.70
2014,07,14,00,02,23.70
2014,07,14,00,03,23.70
2014,07,14,00,04,23.60
2014,07,14,00,05,23.60
2014,07,14,00,06,23.50
2014,07,14,00,07,23.50
2014,07,14,00,08,23.40
2014,07,14,00,09,23.40
2014,07,14,00,10,23.40
2014,07,14,00,11,23.30
2014,07,14,00,12,23.30
2014,07,14,00,13,23.30
2014,07,14,00,14,23.20
2014,07,14,00,15,23.20
2014,07,14,00,16,23.20
2014,07,14,00,17,23.20
2014,07,14,00,18,23.10
2014,07,14,00,19,23.10
2014,07,14,00,20,23.10
2014,07,14,00,21,23.10
2014,07,14,00,22,23.00
2014,07,14,00,23,23.00
2014,07,14,00,24,23.00
2014,07,14,00,25,23.00
2014,07,14,00,26,23.00
2014,07,14,00,27,23.00
2014,07,14,00,28,23.00
2014,07,14,00,29,22.90
2014,07,14,00,30,22.90
2014,07,14,00,31,22.90
2014,07,14,00,32,22.90
2014,07,14,00,33,22.90
2014,07,14,00,34,22.90
2014,07,14,00,35,22.90
2014,07,14,00,36,22.80
2014,07,14,00,37,22.80
2014,07,14,00,38,22.80
2014,07,14,00,39,22.80
2014,07,14,00,40,22.80
2014,07,14,00,41,22.80
2014,07,14,00,42,22.80
2014,07,14,00,43,22.70
2014,07,14,00,44,22.70
2014,07,14,00,45,22.70
2014,07,14,00,46,22.70
2014,07,14,00,47,22.70
2014,07,14,00,48,22.70
2014,07,14,00,49,22.60
2014,07,14,00,50,22.60
2014,07,14,00,51,22.60
2014,07,14,00,52,22.60
2014,07,14,00,53,22.60
2014,07,14,00,54,22.50
2014,07,14,00,55,22.50
2014,07,14,00,56,22.50
2014,07,14,00,57,22.40
2014,07,14,00,58,22.40
2014,07,14,00,59,22.40
2014,07,14,01,00,22.40
2014,07,14,01,01,22.30
2014,07,14,01,02,22.30
2014,07,14,01,03,22.30
2014,07,14,01,04,22.30
2014,07,14,01,05,22.20
2014,07,14,01,06,22.20
2014,07,14,01,07,22.20
2014,07,14,01,08,22.20
2014,07,14,01,09,22.20
2014,07,14,01,10,22.20
2014,07,14,01,11,22.20
2014,07,14,01,12,22.20
2014,07,14,01,13,22.10
2014,07,14,01,14,22.10
2014,07,14,01,15,22.10
2014,07,14,01,16,22.10
2014,07,14,01,17,22.10
2014,07,14,01,18,22.10
2014,07,14,01,19,22.10
2014,07,14,01,20,22.10
2014,07,14,01,21,22.10
2014,07,14,01,22,22.10
2014,07,14,01,23,22.10
2014,07,14,01,24,22.00
2014,07,14,01,25,22.00
2014,07,14,01,26,22.00
2014,07,14,01,27,22.00
2014,07,14,01,28,22.00
2014,07,14,01,29,22.00
2014,07,14,01,30,21.90
2014,07,14,01,31,21.90
2014,07,14,01,32,21.90
2014,07,14,01,33,21.90
2014,07,14,01,34,21.90
2014,07,14,01,35,21.90
2014,07,14,01,36,21.80
2014,07,14,01,37,21.80
2014,07,14,01,38,21.80
2014,07,14,01,39,21.80
2014,07,14,01,40,21.80
2014,07,14,01,41,21.80
2014,07,14,01,42,21.70
2014,07,14,01,43,21.70
2014,07,14,01,44,21.70
2014,07,14,01,45,21.70
2014,07,14,01,46,21.70
2014,07,14,01,47,21.70
2014,07,14,01,48,21.70
2014,07,14,01,49,21.70
2014,07,14,01,50,21.70
2014,07,14,01,51,21.70
2014,07,14,01,52,21.70
2014,07,14,01,53,21.60
2014,07,14,01,54,21.60
2014,07,14,01,55,21.60
2014,07,14,01,56,21.60
2014,07,14,01,57,21.60
2014,07,14,01,58,21.60
2014,07,14,01,59,21.60
2014,07,14,02,00,21.60
2014,07,14,02,01,21.60
2014,07,14,02,02,21.60
2014,07,14,02,03,21.70
2014,07,14,02,04,21.70
2014,07,14,02,05,21.70
2014,07,14,02,06,21.70
2014,07,14,02,07,21.70
2014,07,14,02,08,21.70
2014,07,14,02,09,21.70
2014,07,14,02,10,21.70
2014,07,14,02,11,21.70
2014,07,14,02,12,21.80
2014,07,14,02,13,21.80
2014,07,14,02,14,21.80
2014,07,14,02,15,21.80
2014,07,14,02,16,21.80
2014,07,14,02,17,21.80
2014,07,14,02,18,21.80
2014,07,14,02,19,21.80
2014,07,14,02,20,21.80
2014,07,14,02,21,21.80
2014,07,14,02,22,21.80
2014,07,14,02,23,21.80
2014,07,14,02,24,21.80
2014,07,14,02,25,21.80
2014,07,14,02,26,21.80
2014,07,14,02,27,21.80
2014,07,14,02,28,21.80
2014,07,14,02,29,21.80
2014,07,14,02,30,21.80
2014,07,14,02,31,21.80
2014,07,14,02,32,21.80
2014,07,14,02,33,21.70
2014,07,14,02,34,21.70
2014,07,14,02,35,21.70
2014,07,14,02,36,21.70
2014,07,14,02,37,21.70
2014,07,14,02,38,21.70
2014,07,14,02,39,21.70
2014,07,14,02,40,21.70
2014,07,14,02,41,21.60
2014,07,14,02,42,21.60
2014,07,14,02,43,21.60
2014,07,14,02,44,21.60
2014,07,14,02,45,21.60
2014,07,14,02,46,21.50
2014,07,14,02,47,21.50
2014,07,14,02,48,21.40
2014,07,14,02,49,21.40
2014,07,14,02,50,21.40
2014,07,14,02,51,21.30
2014,07,14,02,52,21.30
2014,07,14,02,53,21.30
2014,07,14,02,54,21.20
2014,07,14,02,55,21.20
2014,07,14,02,56,21.20
2014,07,14,02,57,21.20
2014,07,14,02,58,21.10
2014,07,14,02,59,21.10
2014,07,14,03,00,21.10
2014,07,14,03,01,21.00
2014,07,14,03,02,21.00
2014,07,14,03,03,21.00
2014,07,14,03,04,20.90
2014,07,14,03,05,20.90
2014,07,14,03,06,20.90
2014,07,14,03,07,20.90
2014,07,14,03,08,20.80
2014,07,14,03,09,20.80
2014,07,14,03,10,20.80
2014,07,14,03,11,20.80
2014,07,14,03,12,20.80
2014,07,14,03,13,20.80
2014,07,14,03,14,20.70
2014,07,14,03,15,20.70
2014,07,14,03,16,20.70
2014,07,14,03,17,20.70
2014,07,14,03,18,20.60
2014,07,14,03,19,20.60
2014,07,14,03,20,20.60
2014,07,14,03,21,20.60
2014,07,14,03,22,20.50
2014,07,14,03,23,20.50
2014,07,14,03,24,20.50
2014,07,14,03,25,20.40
2014,07,14,03,26,20.40
2014,07,14,03,27,20.40
2014,07,14,03,28,20.40
2014,07,14,03,29,20.40
2014,07,14,03,30,20.30
2014,07,14,03,31,20.30
2014,07,14,03,32,20.30
2014,07,14,03,33,20.20
2014,07,14,03,34,20.20
2014,07,14,03,35,20.20
2014,07,14,03,36,20.20
2014,07,14,03,37,20.10
2014,07,14,03,38,20.10
2014,07,14,03,39,20.10
2014,07,14,03,40,20.10
2014,07,14,03,41,20.10
2014,07,14,03,42,20.10
2014,07,14,03,43,20.10
2014,07,14,03,44,20.10
2014,07,14,03,45,20.10
2014,07,14,03,46,20.00
2014,07,14,03,47,20.00
2014,07,14,03,48,20.00
2014,07,14,03,49,20.00
2014,07,14,03,50,19.90
2014,07,14,03,51,19.90
2014,07,14,03,52,19.90
2014,07,14,03,53,19.90
2014,07,14,03,54,19.80
2014,07,14,03,55,19.80
2014,07,14,03,56,19.80
2014,07,14,03,57,19.80
2014,07,14,03,58,19.80
2014,07,14,03,59,19.80
2014,07,14,04,00,19.80
2014,07,14,04,01,19.70
2014,07,14,04,02,19.70
2014,07,14,04,03,19.70
2014,07,14,04,04,19.70
2014,07,14,04,05,19.70
2014,07,14,04,06,19.70
2014,07,14,04,07,19.60
2014,07,14,04,08,19.60
2014,07,14,04,09,19.60
2014,07,14,04,10,19.60
2014,07,14,04,11,19.60
2014,07,14,04,12,19.60
2014,07,14,04,13,19.50
2014,07,14,04,14,19.50
2014,07,14,04,15,19.50
2014,07,14,04,16,19.50
2014,07,14,04,17,19.40
2014,07,14,04,18,19.40
2014,07,14,04,19,19.40
2014,07,14,04,20,19.40
2014,07,14,04,21,19.30
2014,07,14,04,22,19.30
2014,07,14,04,23,19.30
2014,07,14,04,24,19.30
2014,07,14,04,25,19.20
2014,07,14,04,26,19.20
2014,07,14,04,27,19.20
2014,07,14,04,28,19.10
2014,07,14,04,29,19.10
2014,07,14,04,30,19.10
2014,07,14,04,31,19.10
2014,07,14,04,32,19.00
2014,07,14,04,33,19.00
2014,07,14,04,34,19.00
2014,07,14,04,35,18.90
2014,07,14,04,36,18.90
2014,07,14,04,37,18.90
2014,07,14,04,38,18.90
2014,07,14,04,39,18.80
2014,07,14,04,40,18.80
2014,07,14,04,41,18.80
2014,07,14,04,42,18.80
2014,07,14,04,43,18.70
2014,07,14,04,44,18.70
2014,07,14,04,45,18.70
2014,07,14,04,46,18.70
2014,07,14,04,47,18.70
2014,07,14,04,48,18.70
2014,07,14,04,49,18.60
2014,07,14,04,50,18.60
2014,07,14,04,51,18.60
2014,07,14,04,52,18.60
2014,07,14,04,53,18.60
2014,07,14,04,54,18.60
2014,07,14,04,55,18.50
2014,07,14,04,56,18.50
2014,07,14,04,57,18.60
2014,07,14,04,58,18.50
2014,07,14,04,59,18.50
2014,07,14,05,00,18.50
2014,07,14,05,01,18.50
2014,07,14,05,02,18.50
2014,07,14,05,03,18.50
2014,07,14,05,04,18.50
2014,07,14,05,05,18.50
2014,07,14,05,06,18.50
2014,07,14,05,07,18.50
2014,07,14,05,08,18.50
2014,07,14,05,09,18.40
2014,07,14,05,10,18.40
2014,07,14,05,11,18.40
2014,07,14,05,12,18.40
2014,07,14,05,13,18.40
2014,07,14,05,14,18.40
2014,07,14,05,15,18.40
2014,07,14,05,16,18.40
2014,07,14,05,17,18.40
2014,07,14,05,18,18.40
2014,07,14,05,19,18.40
2014,07,14,05,20,18.50
2014,07,14,05,21,18.50
2014,07,14,05,22,18.50
2014,07,14,05,23,18.50
2014,07,14,05,24,18.50
2014,07,14,05,25,18.60
2014,07,14,05,26,18.60
2014,07,14,05,27,18.60
2014,07,14,05,28,18.60
2014,07,14,05,29,18.70
2014,07,14,05,30,18.70
2014,07,14,05,31,18.70
2014,07,14,05,32,18.70
2014,07,14,05,33,18.70
2014,07,14,05,34,18.80
2014,07,14,05,35,18.80
2014,07,14,05,36,18.80
2014,07,14,05,37,18.80
2014,07,14,05,38,18.80
2014,07,14,05,39,18.80
2014,07,14,05,40,18.80
2014,07,14,05,41,18.80
2014,07,14,05,42,18.90
2014,07,14,05,43,18.90
2014,07,14,05,44,19.00
2014,07,14,05,45,19.00
2014,07,14,05,46,19.00
2014,07,14,05,47,19.10
2014,07,14,05,48,19.10
2014,07,14,05,49,19.20
2014,07,14,05,50,19.20
2014,07,14,05,51,19.20
2014,07,14,05,52,19.20
2014,07,14,05,53,19.20
2014,07,14,05,54,19.20
2014,07,14,05,55,19.20
2014,07,14,05,56,19.20
2014,07,14,05,57,19.20
2014,07,14,05,58,19.20
2014,07,14,05,59,19.30
2014,07,14,06,00,19.30
2014,07,14,06,01,19.30
2014,07,14,06,02,19.30
2014,07,14,06,03,19.40
2014,07,14,06,04,19.40
2014,07,14,06,05,19.40
2014,07,14,06,06,19.40
2014,07,14,06,07,19.40
2014,07,14,06,08,19.40
2014,07,14,06,09,19.40
2014,07,14,06,10,19.40
2014,07,14,06,11,19.40
2014,07,14,06,12,19.40
2014,07,14,06,13,19.40
2014,07,14,06,14,19.40
2014,07,14,06,15,19.40
2014,07,14,06,16,19.40
2014,07,14,06,17,19.40
2014,07,14,06,18,19.30
2014,07,14,06,19,19.30
2014,07,14,06,20,19.30
2014,07,14,06,21,19.40
2014,07,14,06,22,19.40
2014,07,14,06,23,19.40
2014,07,14,06,24,19.40
2014,07,14,06,25,19.30
2014,07,14,06,26,19.30
2014,07,14,06,27,19.30
2014,07,14,06,28,19.30
2014,07,14,06,29,19.40
2014,07,14,06,30,19.40
2014,07,14,06,31,19.40
2014,07,14,06,32,19.40
2014,07,14,06,33,19.40
2014,07,14,06,34,19.40
2014,07,14,06,35,19.40
2014,07,14,06,36,19.50
2014,07,14,06,37,19.50
2014,07,14,06,38,19.50
2014,07,14,06,39,19.50
2014,07,14,06,40,19.60
2014,07,14,06,41,19.60
2014,07,14,06,42,19.70
2014,07,14,06,43,19.70
2014,07,14,06,44,19.80
2014,07,14,06,45,19.80
2014,07,14,06,46,19.80
2014,07,14,06,47,19.80
2014,07,14,06,48,19.80
2014,07,14,06,49,19.90
2014,07,14,06,50,19.90
2014,07,14,06,51,19.90
2014,07,14,06,52,19.90
2014,07,14,06,53,20.00
2014,07,14,06,54,20.00
2014,07,14,06,55,20.00
2014,07,14,06,56,20.00
2014,07,14,06,57,20.00
2014,07,14,06,58,20.00
2014,07,14,06,59,20.00
2014,07,14,07,00,20.00
2014,07,14,07,01,20.00
2014,07,14,07,02,20.00
2014,07,14,07,03,20.00
2014,07,14,07,04,20.00
2014,07,14,07,05,20.00
2014,07,14,07,06,20.00
2014,07,14,07,07,19.90
2014,07,14,07,08,19.90
2014,07,14,07,09,19.90
2014,07,14,07,10,19.90
2014,07,14,07,11,19.90
2014,07,14,07,12,19.90
2014,07,14,07,13,19.90
2014,07,14,07,14,19.90
2014,07,14,07,15,19.90
2014,07,14,07,16,19.90
2014,07,14,07,17,19.90
2014,07,14,07,18,19.90
2014,07,14,07,19,19.90
2014,07,14,07,20,19.90
2014,07,14,07,21,19.90
2014,07,14,07,22,19.90
2014,07,14,07,23,19.90
2014,07,14,07,24,19.90
2014,07,14,07,25,19.90
2014,07,14,07,26,19.90
2014,07,14,07,27,19.90
2014,07,14,07,28,20.00
2014,07,14,07,29,20.00
2014,07,14,07,30,20.10
2014,07,14,07,31,20.10
2014,07,14,07,32,20.20
2014,07,14,07,33,20.20
2014,07,14,07,34,20.30
2014,07,14,07,35,20.30
2014,07,14,07,36,20.30
2014,07,14,07,37,20.40
2014,07,14,07,38,20.40
2014,07,14,07,39,20.40
2014,07,14,07,40,20.50
2014,07,14,07,41,20.50
2014,07,14,07,42,20.60
2014,07,14,07,43,20.60
2014,07,14,07,44,20.70
2014,07,14,07,45,20.70
2014,07,14,07,46,20.70
2014,07,14,07,47,20.70
2014,07,14,07,48,20.80
2014,07,14,07,49,20.80
2014,07,14,07,50,20.80
2014,07,14,07,51,20.80
2014,07,14,07,52,20.90
2014,07,14,07,53,20.90
2014,07,14,07,54,20.90
2014,07,14,07,55,20.90
2014,07,14,07,56,21.00
2014,07,14,07,57,21.00
2014,07,14,07,58,21.00
2014,07,14,07,59,21.00
2014,07,14,08,00,21.00
2014,07,14,08,01,21.10
2014,07,14,08,02,21.10
2014,07,14,08,03,21.10
2014,07,14,08,04,21.10
2014,07,14,08,05,21.10
2014,07,14,08,06,21.10
2014,07,14,08,07,21.10
2014,07,14,08,08,21.10
2014,07,14,08,09,21.10
2014,07,14,08,10,21.10
2014,07,14,08,11,21.10
2014,07,14,08,12,21.10
2014,07,14,08,13,21.10
2014,07,14,08,14,21.10
2014,07,14,08,15,21.20
2014,07,14,08,16,21.20
2014,07,14,08,17,21.30
2014,07,14,08,18,21.30
2014,07,14,08,19,21.40
2014,07,14,08,20,21.40
2014,07,14,08,21,21.50
2014,07,14,08,22,21.60
2014,07,14,08,23,21.60
2014,07,14,08,24,21.70
2014,07,14,08,25,21.80
2014,07,14,08,26,21.80
2014,07,14,08,27,21.80
2014,07,14,08,28,21.90
2014,07,14,08,29,22.00
2014,07,14,08,30,22.00
2014,07,14,08,31,22.10
2014,07,14,08,32,22.20
2014,07,14,08,33,22.20
2014,07,14,08,34,22.30
2014,07,14,08,35,22.30
2014,07,14,08,36,22.40
2014,07,14,08,37,22.40
2014,07,14,08,38,22.40
2014,07,14,08,39,22.40
2014,07,14,08,40,22.40
2014,07,14,08,41,22.40
2014,07,14,08,42,22.40
2014,07,14,08,43,22.40
2014,07,14,08,44,22.40
2014,07,14,08,45,22.40
2014,07,14,08,46,22.50
2014,07,14,08,47,22.50
2014,07,14,08,48,22.50
2014,07,14,08,49,22.50
2014,07,14,08,50,22.50
2014,07,14,08,51,22.50
2014,07,14,08,52,22.50
2014,07,14,08,53,22.50
2014,07,14,08,54,22.50
2014,07,14,08,55,22.50
2014,07,14,08,56,22.40
2014,07,14,08,57,22.30
2014,07,14,08,58,22.30
2014,07,14,08,59,22.30
2014,07,14,09,00,22.20
2014,07,14,09,01,22.20
2014,07,14,09,02,22.20
2014,07,14,09,03,22.20
2014,07,14,09,04,22.20
2014,07,14,09,05,22.20
2014,07,14,09,06,22.20
2014,07,14,09,07,22.20
2014,07,14,09,08,22.20
2014,07,14,09,09,22.20
2014,07,14,09,10,22.20
2014,07,14,09,11,22.10
2014,07,14,09,12,22.10
2014,07,14,09,13,22.10
2014,07,14,09,14,22.10
2014,07,14,09,15,22.10
2014,07,14,09,16,22.10
2014,07,14,09,17,22.10
2014,07,14,09,18,22.10
2014,07,14,09,19,22.00
2014,07,14,09,20,21.90
2014,07,14,09,21,21.90
2014,07,14,09,22,21.90
2014,07,14,09,23,21.90
2014,07,14,09,24,21.90
2014,07,14,09,25,21.90
2014,07,14,09,26,21.90
2014,07,14,09,27,21.90
2014,07,14,09,28,21.90
2014,07,14,09,29,21.90
2014,07,14,09,30,21.90
2014,07,14,09,31,22.00
2014,07,14,09,32,22.00
2014,07,14,09,33,22.10
2014,07,14,09,34,22.10
2014,07,14,09,35,22.20
2014,07,14,09,36,22.30
2014,07,14,09,37,22.40
2014,07,14,09,38,22.50
2014,07,14,09,39,22.60
2014,07,14,09,40,22.70
2014,07,14,09,41,22.80
2014,07,14,09,42,22.80
2014,07,14,09,43,22.80
2014,07,14,09,44,22.80
2014,07,14,09,45,22.80
2014,07,14,09,46,22.80
2014,07,14,09,47,22.80
2014,07,14,09,48,22.70
2014,07,14,09,49,22.70
2014,07,14,09,50,22.70
2014,07,14,09,51,22.70
2014,07,14,09,52,22.70
2014,07,14,09,53,22.70
2014,07,14,09,54,22.70
2014,07,14,09,55,22.80
2014,07,14,09,56,22.80
2014,07,14,09,57,22.80
2014,07,14,09,58,22.90
2014,07,14,09,59,23.00
2014,07,14,10,00,23.10
2014,07,14,10,01,23.20
2014,07,14,10,02,23.20
2014,07,14,10,03,23.30
2014,07,14,10,04,23.20
2014,07,14,10,05,23.20
2014,07,14,10,06,23.20
2014,07,14,10,07,23.20
2014,07,14,10,08,23.10
2014,07,14,10,09,23.20
2014,07,14,10,10,23.20
2014,07,14,10,11,23.30
2014,07,14,10,12,23.50
2014,07,14,10,13,23.50
2014,07,14,10,14,23.60
2014,07,14,10,15,23.70
2014,07,14,10,16,23.70
2014,07,14,10,17,23.70
2014,07,14,10,18,23.70
2014,07,14,10,19,23.70
2014,07,14,10,20,23.70
2014,07,14,10,21,23.70
2014,07,14,10,22,23.70
2014,07,14,10,23,23.70
2014,07,14,10,24,23.70
2014,07,14,10,25,23.70
2014,07,14,10,26,23.70
2014,07,14,10,27,23.70
2014,07,14,10,28,23.70
2014,07,14,10,29,23.70
2014,07,14,10,30,23.70
2014,07,14,10,31,23.60
2014,07,14,10,32,23.60
2014,07,14,10,33,23.60
2014,07,14,10,34,23.60
2014,07,14,10,35,23.70
2014,07,14,10,36,23.80
2014,07,14,10,37,23.90
2014,07,14,10,38,24.00
2014,07,14,10,39,24.10
2014,07,14,10,40,24.20
2014,07,14,10,41,24.30
2014,07,14,10,42,24.50
2014,07,14,10,43,24.60
2014,07,14,10,44,24.80
2014,07,14,10,45,24.90
2014,07,14,10,46,25.10
2014,07,14,10,47,25.20
2014,07,14,10,48,25.40
2014,07,14,10,49,25.50
2014,07,14,10,50,25.60
2014,07,14,10,51,25.70
2014,07,14,10,52,25.80
2014,07,14,10,53,25.80
2014,07,14,10,54,25.90
2014,07,14,10,55,26.00
2014,07,14,10,56,26.00
2014,07,14,10,57,26.10
2014,07,14,10,58,26.20
2014,07,14,10,59,26.20
2014,07,14,11,00,26.30
2014,07,14,11,01,26.20
2014,07,14,11,02,26.20
2014,07,14,11,03,26.20
2014,07,14,11,04,26.10
2014,07,14,11,05,26.00
2014,07,14,11,06,25.90
2014,07,14,11,07,25.70
2014,07,14,11,08,25.60
2014,07,14,11,09,25.50
2014,07,14,11,10,25.40
2014,07,14,11,11,25.30
2014,07,14,11,12,25.20
2014,07,14,11,13,25.10
2014,07,14,11,14,25.00
2014,07,14,11,15,24.90
2014,07,14,11,16,24.80
2014,07,14,11,17,24.60
2014,07,14,11,18,24.50
2014,07,14,11,19,24.50
2014,07,14,11,20,24.40
2014,07,14,11,21,24.40
2014,07,14,11,22,24.40
2014,07,14,11,23,24.50
2014,07,14,11,24,24.50
2014,07,14,11,25,24.60
2014,07,14,11,26,24.60
2014,07,14,11,27,24.50
2014,07,14,11,28,24.50
2014,07,14,11,29,24.50
2014,07,14,11,30,24.50
2014,07,14,11,31,24.50
2014,07,14,11,32,24.50
2014,07,14,11,33,24.50
2014,07,14,11,34,24.40
2014,07,14,11,35,24.40
2014,07,14,11,36,24.40
2014,07,14,11,37,24.30
2014,07,14,11,38,24.30
2014,07,14,11,39,24.30
2014,07,14,11,40,24.30
2014,07,14,11,41,24.30
2014,07,14,11,42,24.30
2014,07,14,11,43,24.30
2014,07,14,11,44,24.20
2014,07,14,11,45,24.10
2014,07,14,11,46,24.10
2014,07,14,11,47,24.10
2014,07,14,11,48,24.10
2014,07,14,11,49,24.00
2014,07,14,11,50,24.00
2014,07,14,11,51,23.90
2014,07,14,11,52,23.90
2014,07,14,11,53,23.90
2014,07,14,11,54,24.00
2014,07,14,11,55,24.00
2014,07,14,11,56,24.10
2014,07,14,11,57,24.10
2014,07,14,11,58,24.10
2014,07,14,11,59,24.10
2014,07,14,12,00,24.10
2014,07,14,12,01,24.10
2014,07,14,12,02,24.10
2014,07,14,12,03,24.10
2014,07,14,12,04,24.20
2014,07,14,12,05,24.30
2014,07,14,12,06,24.40
2014,07,14,12,07,24.50
2014,07,14,12,08,24.70
2014,07,14,12,09,24.70
2014,07,14,12,10,24.80
2014,07,14,12,11,24.90
2014,07,14,12,12,25.10
2014,07,14,12,13,25.20
2014,07,14,12,14,25.30
2014,07,14,12,15,25.50
2014,07,14,12,16,25.60
2014,07,14,12,17,25.70
2014,07,14,12,18,25.80
2014,07,14,12,19,25.80
2014,07,14,12,20,25.80
2014,07,14,12,21,25.80
2014,07,14,12,22,25.90
2014,07,14,12,23,25.90
2014,07,14,12,24,26.00
2014,07,14,12,25,26.00
2014,07,14,12,26,26.10
2014,07,14,12,27,26.10
2014,07,14,12,28,26.20
2014,07,14,12,29,26.30
2014,07,14,12,30,26.40
2014,07,14,12,31,26.40
2014,07,14,12,32,26.40
2014,07,14,12,33,26.20
2014,07,14,12,34,26.10
2014,07,14,12,35,26.10
2014,07,14,12,36,26.10
2014,07,14,12,37,26.10
2014,07,14,12,38,26.10
2014,07,14,12,39,26.10
2014,07,14,12,40,26.10
2014,07,14,12,41,26.10
2014,07,14,12,42,26.20
2014,07,14,12,43,26.20
2014,07,14,12,44,26.30
2014,07,14,12,45,26.30
2014,07,14,12,46,26.20
2014,07,14,12,47,26.20
2014,07,14,12,48,26.20
2014,07,14,12,49,26.30
2014,07,14,12,50,26.40
2014,07,14,12,51,26.40
2014,07,14,12,52,26.50
2014,07,14,12,53,26.60
2014,07,14,12,54,26.70
2014,07,14,12,55,26.80
2014,07,14,12,56,26.80
2014,07,14,12,57,26.80
2014,07,14,12,58,26.80
2014,07,14,12,59,26.90
2014,07,14,13,00,27.00
2014,07,14,13,01,27.00
2014,07,14,13,02,27.00
2014,07,14,13,03,27.00
2014,07,14,13,04,27.00
2014,07,14,13,05,27.00
2014,07,14,13,06,27.00
2014,07,14,13,07,27.00
2014,07,14,13,08,27.10
2014,07,14,13,09,27.10
2014,07,14,13,10,27.20
2014,07,14,13,11,27.30
2014,07,14,13,12,27.40
2014,07,14,13,13,27.50
2014,07,14,13,14,27.50
2014,07,14,13,15,27.60
2014,07,14,13,16,27.70
2014,07,14,13,17,27.80
2014,07,14,13,18,27.80
2014,07,14,13,19,28.00
2014,07,14,13,20,28.00
2014,07,14,13,21,28.10
2014,07,14,13,22,28.10
2014,07,14,13,23,28.10
2014,07,14,13,24,28.10
2014,07,14,13,25,28.10
2014,07,14,13,26,28.20
2014,07,14,13,27,28.30
2014,07,14,13,28,28.30
2014,07,14,13,29,28.30
2014,07,14,13,30,28.20
2014,07,14,13,31,28.30
2014,07,14,13,32,28.30
2014,07,14,13,33,28.30
2014,07,14,13,34,28.40
2014,07,14,13,35,28.40
2014,07,14,13,36,28.50
2014,07,14,13,37,28.40
2014,07,14,13,38,28.30
2014,07,14,13,39,28.30
2014,07,14,13,40,28.20
2014,07,14,13,41,28.10
2014,07,14,13,42,28.10
2014,07,14,13,43,28.00
2014,07,14,13,44,28.00
2014,07,14,13,45,27.90
2014,07,14,13,46,28.00
2014,07,14,13,47,28.10
2014,07,14,13,48,28.20
2014,07,14,13,49,28.30
2014,07,14,13,50,28.40
2014,07,14,13,51,28.60
2014,07,14,13,52,28.70
2014,07,14,13,53,28.80
2014,07,14,13,54,28.90
2014,07,14,13,55,29.00
2014,07,14,13,56,29.10
2014,07,14,13,57,29.20
2014,07,14,13,58,29.20
2014,07,14,13,59,29.30
2014,07,14,14,00,29.30
2014,07,14,14,01,29.30
2014,07,14,14,02,29.40
2014,07,14,14,03,29.40
2014,07,14,14,04,29.40
2014,07,14,14,05,29.30
2014,07,14,14,06,29.40
2014,07,14,14,07,29.50
2014,07,14,14,08,29.60
2014,07,14,14,09,29.70
2014,07,14,14,10,29.80
2014,07,14,14,11,29.90
2014,07,14,14,12,29.90
2014,07,14,14,13,29.90
2014,07,14,14,14,29.90
2014,07,14,14,15,29.80
2014,07,14,14,16,29.80
2014,07,14,14,17,29.80
2014,07,14,14,18,29.80
2014,07,14,14,19,29.90
2014,07,14,14,20,29.90
2014,07,14,14,21,29.90
2014,07,14,14,22,30.00
2014,07,14,14,23,30.00
2014,07,14,14,24,29.90
2014,07,14,14,25,30.00
2014,07,14,14,26,30.00
2014,07,14,14,27,30.00
2014,07,14,14,28,30.00
2014,07,14,14,29,30.10
2014,07,14,14,30,30.20
2014,07,14,14,31,30.30
2014,07,14,14,32,30.30
2014,07,14,14,33,30.50
2014,07,14,14,34,30.60
2014,07,14,14,35,30.60
2014,07,14,14,36,30.60
2014,07,14,14,37,30.70
2014,07,14,14,38,30.70
2014,07,14,14,39,30.70
2014,07,14,14,40,30.70
2014,07,14,14,41,30.60
2014,07,14,14,42,30.50
2014,07,14,14,43,30.50
2014,07,14,14,44,30.40
2014,07,14,14,45,30.40
2014,07,14,14,46,30.40
2014,07,14,14,47,30.50
2014,07,14,14,48,30.50
2014,07,14,14,49,30.60
2014,07,14,14,50,30.60
2014,07,14,14,51,30.60
2014,07,14,14,52,30.60
2014,07,14,14,53,30.60
2014,07,14,14,54,30.60
2014,07,14,14,55,30.60
2014,07,14,14,56,30.50
2014,07,14,14,57,30.40
2014,07,14,14,58,30.40
2014,07,14,14,59,30.40
2014,07,14,15,00,30.40
2014,07,14,15,01,30.50
2014,07,14,15,02,30.60
2014,07,14,15,03,30.70
2014,07,14,15,04,30.80
2014,07,14,15,05,30.90
2014,07,14,15,06,30.90
2014,07,14,15,07,30.80
2014,07,14,15,08,30.80
2014,07,14,15,09,30.80
2014,07,14,15,10,30.80
2014,07,14,15,11,30.70
2014,07,14,15,12,30.70
2014,07,14,15,13,30.70
2014,07,14,15,14,30.80
2014,07,14,15,15,30.80
2014,07,14,15,16,30.80
2014,07,14,15,17,30.90
2014,07,14,15,18,30.90
2014,07,14,15,19,31.10
2014,07,14,15,20,31.20
2014,07,14,15,21,31.20
2014,07,14,15,22,31.30
2014,07,14,15,23,31.40
2014,07,14,15,24,31.40
2014,07,14,15,25,31.40
2014,07,14,15,26,31.30
2014,07,14,15,27,31.20
2014,07,14,15,28,31.20
2014,07,14,15,29,31.10
2014,07,14,15,30,31.20
2014,07,14,15,31,31.20
2014,07,14,15,32,31.30
2014,07,14,15,33,31.30
2014,07,14,15,34,31.40
2014,07,14,15,35,31.50
2014,07,14,15,36,31.50
2014,07,14,15,37,31.60
2014,07,14,15,38,31.60
2014,07,14,15,39,31.60
2014,07,14,15,40,31.70
2014,07,14,15,41,31.80
2014,07,14,15,42,31.80
2014,07,14,15,43,31.80
2014,07,14,15,44,31.80
2014,07,14,15,45,31.70
2014,07,14,15,46,31.70
2014,07,14,15,47,31.60
2014,07,14,15,48,31.60
2014,07,14,15,49,31.50
2014,07,14,15,50,31.40
2014,07,14,15,51,31.30
2014,07,14,15,52,31.20
2014,07,14,15,53,31.20
2014,07,14,15,54,31.20
2014,07,14,15,55,31.20
2014,07,14,15,56,31.20
2014,07,14,15,57,31.30
2014,07,14,15,58,31.30
2014,07,14,15,59,31.30
2014,07,14,16,00,31.30
2014,07,14,16,01,31.30
2014,07,14,16,02,31.30
2014,07,14,16,03,31.30
2014,07,14,16,04,31.30
2014,07,14,16,05,31.30
2014,07,14,16,06,31.20
2014,07,14,16,07,31.20
2014,07,14,16,08,31.20
2014,07,14,16,09,31.30
2014,07,14,16,10,31.30
2014,07,14,16,11,31.40
2014,07,14,16,12,31.40
2014,07,14,16,13,31.50
2014,07,14,16,14,31.50
2014,07,14,16,15,31.60
2014,07,14,16,16,31.60
2014,07,14,16,17,31.60
2014,07,14,16,18,31.70
2014,07,14,16,19,31.70
2014,07,14,16,20,31.60
2014,07,14,16,21,31.60
2014,07,14,16,22,31.70
2014,07,14,16,23,31.70
2014,07,14,16,24,31.70
2014,07,14,16,25,31.70
2014,07,14,16,26,31.70
2014,07,14,16,27,31.70
2014,07,14,16,28,31.70
2014,07,14,16,29,31.70
2014,07,14,16,30,31.80
2014,07,14,16,31,31.80
2014,07,14,16,32,31.90
2014,07,14,16,33,31.90
2014,07,14,16,34,32.00
2014,07,14,16,35,32.00
2014,07,14,16,36,32.10
2014,07,14,16,37,32.00
2014,07,14,16,38,32.00
2014,07,14,16,39,31.90
2014,07,14,16,40,31.80
2014,07,14,16,41,31.80
2014,07,14,16,42,31.80
2014,07,14,16,43,31.80
2014,07,14,16,44,31.80
2014,07,14,16,45,31.70
2014,07,14,16,46,31.60
2014,07,14,16,47,31.60
2014,07,14,16,48,31.60
2014,07,14,16,49,31.60
2014,07,14,16,50,31.60
2014,07,14,16,51,31.60
2014,07,14,16,52,31.60
2014,07,14,16,53,31.60
2014,07,14,16,54,31.70
2014,07,14,16,55,31.70
2014,07,14,16,56,31.60
2014,07,14,16,57,31.70
2014,07,14,16,58,31.70
2014,07,14,16,59,31.70
2014,07,14,17,00,31.70
2014,07,14,17,01,31.70
2014,07,14,17,02,31.60
2014,07,14,17,03,31.60
2014,07,14,17,04,31.70
2014,07,14,17,05,31.60
2014,07,14,17,06,31.60
2014,07,14,17,07,31.60
2014,07,14,17,08,31.60
2014,07,14,17,09,31.70
2014,07,14,17,10,31.80
2014,07,14,17,11,31.90
2014,07,14,17,12,31.90
2014,07,14,17,13,32.00
2014,07,14,17,14,32.00
2014,07,14,17,15,32.10
2014,07,14,17,16,32.10
2014,07,14,17,17,32.10
2014,07,14,17,18,32.10
2014,07,14,17,19,32.10